User: anonymous   Login
Location: *
(50.3194°N, 7.1067°E)
Time: 03:27:03
(UTC+00:00)
Language:

SJ-11-01 - Orbit

View from above orbital plane
View from above orbital plane
View from above satellite
View from above satellite

Ground track
Ground track

The orbit data is extracted from the following two-line orbital elements,

1 36088U 09061A   19321.56805024  .00000085  00000-0  27031-4 0  9997
2 36088  98.0196 356.7773 0012498  28.8604 331.3286 14.60117056533547
Epoch (UTC): 17 November 2019 13:37:59
Eccentricity: 0.0012498
inclination: 98.0196°
perigee height: 684 km
apogee height: 701 km
right ascension of ascending node: 356.7773°
argument of perigee: 28.8604°
revolutions per day: 14.60117056
mean anomaly at epoch: 331.3286°
orbit number at epoch: 53354

The dashed part of the orbit path shows where the satellite is in the earth's shadow,  

DLR